Flag for Canada Weather past 2 weeks in Haldimand, Ontario, Canada

Now
61 °F

Scattered clouds.


Feels Like: 61 °F
Forecast: 47 / 66 °F
Wind: 6 mph from Northeast

Location: Hamilton Airport

Current Time: Jun 2, 2015 at 1:44:26 PM

Latest Report: Jun 2, 2015 at 1:00 PM


Visibility: 15 mi

Pressure: 30.22 "Hg

Humidity: 68%

Dew point: 50 °F

Location of HaldimandLocation

Historic Weather in Haldimand — Graph

°F

Haldimand temperature yesterday

Maximum temperature yesterday: 57 °F (at 3:00 PM)
Minimum temperature yesterday: 43 °F (at 2:00 AM)
Average temperature yesterday: 51 °F

Past Weeks' High & Low Weather Summary

 TemperatureHumidityPressure
High82 °F (May 18, 2:00 PM)100% (May 19, 2:00 AM)30.44 "Hg (May 19, 2:00 AM)
Low32 °F (May 23, 3:00 AM)19% (May 22, 7:00 PM)29.86 "Hg (May 21, 5:00 PM)
Average60 °F64%30.10 "Hg
* Reported May 18 12:00 Noon — Jun 2 12:00 Noon, Haldimand, Weather by CustomWeather, © 2015

Note: Actual official high and low records may vary slightly from our data, if they occured in-between our weather recording intervals... More about our weather records

Advertising

Haldimand weather history for previous 24 hours

 ConditionsComfort  
Time TempWeatherWind HumidityBarometerVisibility
12:00 PM
Tue, Jun 2
59 °FPassing clouds.10 mph68%30.23 "Hg15 mi
11:00 AM57 °FPassing clouds.12 mph72%30.24 "Hg15 mi
10:00 AM55 °FScattered clouds.13 mph77%30.23 "Hg15 mi
9:00 AM55 °FScattered clouds.12 mph77%30.22 "Hg15 mi
8:00 AM52 °FPassing clouds.9 mph88%30.21 "Hg15 mi
7:00 AM46 °FScattered clouds.7 mph93%30.20 "Hg15 mi
6:00 AM46 °FPassing clouds.5 mph93%30.19 "Hg15 mi
5:00 AM46 °FPassing clouds.5 mph93%30.19 "Hg15 mi
4:00 AM46 °FPassing clouds.3 mph93%30.19 "Hg15 mi
3:00 AM48 °FPassing clouds.3 mph94%30.20 "Hg15 mi
2:00 AM46 °FPassing clouds.3 mph93%30.20 "Hg15 mi
1:00 AM48 °FPassing clouds.No wind87%30.20 "Hg15 mi
12:00 AM50 °FPassing clouds.3 mph88%30.20 "Hg15 mi
11:00 PM
Mon, Jun 1
50 °FPartly cloudy.3 mph88%30.21 "Hg15 mi
10:00 PM52 °FMostly cloudy.3 mph82%30.22 "Hg15 mi
9:00 PM52 °FMore clouds than sun.7 mph82%30.21 "Hg15 mi
8:00 PM55 °FMore clouds than sun.7 mph77%30.20 "Hg15 mi
7:00 PM57 °FMore clouds than sun.6 mph67%30.20 "Hg15 mi
6:00 PM57 °FOvercast.3 mph67%30.20 "Hg15 mi
5:00 PM57 °FOvercast.5 mph67%30.20 "Hg15 mi
4:00 PM57 °FOvercast.6 mph67%30.21 "Hg15 mi
3:00 PM57 °FOvercast.6 mph72%30.21 "Hg15 mi
2:00 PM55 °FOvercast.12 mph67%30.21 "Hg15 mi
1:00 PM55 °FBroken clouds.12 mph67%30.22 "Hg15 mi
Weather by CustomWeather, © 2015

See weather overviewHow to use our weather pages